• în România
  • Lista ţărilor
  • Pe 7 zile
  • Temperatura apei
  • Hartă satelitară
  • Meteo pe hartă
  • Widget-uri
  • user-avatar
    Intrare

    Meteo pe oră la Kostamoyarvi

    Astăzi, 19 August, Duminică

    Timp Temperatura Precipitaţii Vânt Presiune Umiditate
    00:00 +19°C° 0,1 mm 4 m/s 751 mmHg 85%
    01:00 +18°C° 0,1 mm 4 m/s 751 mmHg 87%
    02:00 +17°C° 0 mm 5 m/s 751 mmHg 88%
    03:00 +17°C° 0,1 mm 5 m/s 750 mmHg 88%
    04:00 +16°C° 0,1 mm 5 m/s 750 mmHg 88%
    05:00 +16°C° 0,1 mm 5 m/s 750 mmHg 88%
    06:00 +16°C° 0,1 mm 5 m/s 750 mmHg 83%
    07:00 +17°C° 0,1 mm 5 m/s 749 mmHg 78%
    08:00 +19°C° 0,1 mm 6 m/s 749 mmHg 74%
    09:00 +17°C° 1,3 mm 6 m/s 749 mmHg 80%
    10:00 +17°C° 1,3 mm 6 m/s 749 mmHg 86%
    11:00 +16°C° 1,3 mm 6 m/s 749 mmHg 93%
    12:00 +17°C° 1,1 mm 6 m/s 748 mmHg 90%
    13:00 +17°C° 1,1 mm 6 m/s 748 mmHg 87%
    14:00 +19°C° 1,1 mm 6 m/s 748 mmHg 84%
    15:00 +20°C° 0,3 mm 6 m/s 748 mmHg 80%
    16:00 +20°C° 0,3 mm 5 m/s 748 mmHg 75%
    17:00 +21°C° 0,3 mm 4 m/s 748 mmHg 70%
    18:00 +19°C° 0,1 mm 4 m/s 748 mmHg 72%
    19:00 +18°C° 0,1 mm 4 m/s 748 mmHg 73%
    20:00 +17°C° 0,1 mm 3 m/s 748 mmHg 75%
    21:00 +16°C° 0 mm 3 m/s 748 mmHg 73%
    22:00 +15°C° 0 mm 4 m/s 749 mmHg 72%
    23:00 +14°C° 0 mm 4 m/s 749 mmHg 70%

    Mâine, 20 August, Luni

    Timp Temperatura Precipitaţii Vânt Presiune Umiditate
    00:00 +14°C° 0 mm 3 m/s 749 mmHg 71%
    01:00 +13°C° 0 mm 3 m/s 750 mmHg 71%
    02:00 +12°C° 0 mm 3 m/s 750 mmHg 72%
    03:00 +13°C° 0 mm 2 m/s 750 mmHg 72%
    04:00 +13°C° 0 mm 2 m/s 750 mmHg 72%
    05:00 +13°C° 0 mm 2 m/s 750 mmHg 72%
    06:00 +14°C° 0 mm 2 m/s 750 mmHg 67%
    07:00 +16°C° 0 mm 2 m/s 750 mmHg 61%
    08:00 +18°C° 0 mm 1 m/s 750 mmHg 55%
    09:00 +19°C° 0 mm 1 m/s 750 mmHg 50%
    10:00 +21°C° 0 mm 1 m/s 750 mmHg 45%
    11:00 +22°C° 0 mm 1 m/s 749 mmHg 39%
    12:00 +21°C° 0 mm 2 m/s 749 mmHg 40%
    13:00 +21°C° 0 mm 2 m/s 748 mmHg 41%
    14:00 +21°C° 0 mm 3 m/s 748 mmHg 42%
    15:00 +20°C° 0,1 mm 3 m/s 747 mmHg 49%
    16:00 +19°C° 0,1 mm 3 m/s 747 mmHg 55%
    17:00 +19°C° 0,1 mm 3 m/s 746 mmHg 62%
    18:00 +17°C° 0,8 mm 3 m/s 745 mmHg 70%
    19:00 +16°C° 0,8 mm 3 m/s 744 mmHg 78%
    20:00 +14°C° 0,8 mm 3 m/s 744 mmHg 85%
    21:00 +14°C° 0,2 mm 3 m/s 743 mmHg 87%
    22:00 +14°C° 0,2 mm 3 m/s 743 mmHg 88%
    23:00 +13°C° 0,2 mm 4 m/s 742 mmHg 89%

    Poimâine, 21 August, Marţi

    Timp Temperatura Precipitaţii Vânt Presiune Umiditate
    00:00 +13°C° 0,5 mm 4 m/s 742 mmHg 89%
    01:00 +13°C° 0,5 mm 3 m/s 742 mmHg 89%
    02:00 +13°C° 0,5 mm 3 m/s 741 mmHg 88%
    03:00 +12°C° 0,6 mm 4 m/s 742 mmHg 88%
    04:00 +12°C° 0,6 mm 4 m/s 742 mmHg 88%
    05:00 +12°C° 0,6 mm 4 m/s 742 mmHg 87%
    06:00 +12°C° 0,2 mm 4 m/s 742 mmHg 85%
    07:00 +13°C° 0,2 mm 4 m/s 742 mmHg 83%
    08:00 +13°C° 0,2 mm 4 m/s 743 mmHg 81%
    09:00 +14°C° 0,2 mm 5 m/s 743 mmHg 77%
    10:00 +15°C° 0,2 mm 5 m/s 744 mmHg 72%
    11:00 +15°C° 0,2 mm 6 m/s 744 mmHg 67%
    12:00 +15°C° 0,3 mm 6 m/s 744 mmHg 67%
    13:00 +16°C° 0,3 mm 7 m/s 745 mmHg 66%
    14:00 +16°C° 0,3 mm 7 m/s 745 mmHg 66%
    15:00 +15°C° 0,1 mm 7 m/s 745 mmHg 63%
    16:00 +15°C° 0,1 mm 7 m/s 746 mmHg 61%
    17:00 +15°C° 0,1 mm 8 m/s 746 mmHg 58%
    18:00 +14°C° 0 mm 7 m/s 747 mmHg 58%
    19:00 +12°C° 0 mm 7 m/s 747 mmHg 59%
    20:00 +12°C° 0 mm 7 m/s 748 mmHg 60%
    21:00 +11°C° 0 mm 7 m/s 748 mmHg 60%
    22:00 +11°C° 0 mm 7 m/s 749 mmHg 60%
    23:00 +10°C° 0 mm 7 m/s 749 mmHg 60%

    22 August, Miercuri

    Timp Temperatura Precipitaţii Vânt Presiune Umiditate
    00:00 +10°C° 0 mm 6 m/s 750 mmHg 61%
    01:00 +10°C° 0 mm 6 m/s 750 mmHg 61%
    02:00 +9°C° 0 mm 6 m/s 751 mmHg 61%
    03:00 +9°C° 0 mm 6 m/s 751 mmHg 62%
    04:00 +9°C° 0 mm 6 m/s 752 mmHg 64%
    05:00 +9°C° 0 mm 6 m/s 752 mmHg 65%
    06:00 +10°C° 0 mm 6 m/s 753 mmHg 61%
    07:00 +11°C° 0 mm 6 m/s 753 mmHg 57%
    08:00 +13°C° 0 mm 6 m/s 754 mmHg 53%
    09:00 +14°C° 0 mm 5 m/s 754 mmHg 49%
    10:00 +15°C° 0 mm 5 m/s 754 mmHg 44%
    11:00 +16°C° 0 mm 5 m/s 754 mmHg 40%
    12:00 +17°C° 0 mm 4 m/s 754 mmHg 39%
    13:00 +18°C° 0 mm 4 m/s 754 mmHg 38%
    14:00 +19°C° 0 mm 4 m/s 754 mmHg 37%
    15:00 +18°C° 0 mm 4 m/s 754 mmHg 39%
    16:00 +18°C° 0 mm 4 m/s 754 mmHg 40%
    17:00 +18°C° 0 mm 4 m/s 753 mmHg 42%
    18:00 +17°C° 0 mm 4 m/s 753 mmHg 49%
    19:00 +15°C° 0 mm 4 m/s 753 mmHg 55%
    20:00 +14°C° 0 mm 4 m/s 753 mmHg 62%
    21:00 +14°C° 0,9 mm 4 m/s 752 mmHg 72%
    22:00 +13°C° 0,9 mm 4 m/s 751 mmHg 82%
    23:00 +13°C° 0,9 mm 5 m/s 751 mmHg 93%

    23 August, Joi

    Timp Temperatura Precipitaţii Vânt Presiune Umiditate
    00:00 +14°C° 1,3 mm 5 m/s 750 mmHg 93%
    01:00 +14°C° 1,3 mm 5 m/s 749 mmHg 94%
    02:00 +15°C° 1,3 mm 6 m/s 749 mmHg 95%
    03:00 +15°C° 1,3 mm 7 m/s 748 mmHg 94%
    04:00 +16°C° 1,3 mm 7 m/s 747 mmHg 93%
    05:00 +16°C° 1,3 mm 8 m/s 747 mmHg 93%
    06:00 +17°C° 0,7 mm 8 m/s 747 mmHg 91%
    07:00 +17°C° 0,7 mm 8 m/s 747 mmHg 90%
    08:00 +17°C° 0,7 mm 7 m/s 747 mmHg 89%
    09:00 +18°C° 0,3 mm 7 m/s 747 mmHg 82%
    10:00 +20°C° 0,3 mm 7 m/s 747 mmHg 75%
    11:00 +20°C° 0,3 mm 7 m/s 747 mmHg 69%
    12:00 +21°C° 0,1 mm 6 m/s 748 mmHg 65%
    13:00 +21°C° 0,1 mm 6 m/s 748 mmHg 60%
    14:00 +22°C° 0,1 mm 6 m/s 748 mmHg 56%
    15:00 +21°C° 0 mm 5 m/s 749 mmHg 57%
    16:00 +21°C° 0 mm 5 m/s 749 mmHg 58%
    17:00 +21°C° 0 mm 4 m/s 749 mmHg 59%
    18:00 +19°C° 0 mm 4 m/s 749 mmHg 66%
    19:00 +18°C° 0 mm 3 m/s 749 mmHg 72%
    20:00 +16°C° 0 mm 2 m/s 750 mmHg 79%
    21:00 +16°C° 0 mm 2 m/s 750 mmHg 81%
    22:00 +15°C° 0 mm 2 m/s 750 mmHg 83%
    23:00 +15°C° 0 mm 2 m/s 750 mmHg 85%

    24 August, Vineri

    Timp Temperatura Precipitaţii Vânt Presiune Umiditate
    00:00 +14°C° 0 mm 2 m/s 751 mmHg 86%
    01:00 +14°C° 0 mm 2 m/s 751 mmHg 88%
    02:00 +14°C° 0 mm 2 m/s 751 mmHg 89%
    03:00 +14°C° 0 mm 2 m/s 751 mmHg 90%
    04:00 +13°C° 0 mm 3 m/s 750 mmHg 90%
    05:00 +13°C° 0 mm 3 m/s 750 mmHg 91%
    06:00 +16°C° 0 mm 3 m/s 750 mmHg 87%
    07:00 +17°C° 0 mm 4 m/s 750 mmHg 83%
    08:00 +19°C° 0 mm 4 m/s 750 mmHg 79%
    09:00 +21°C° 0 mm 5 m/s 750 mmHg 73%
    10:00 +22°C° 0 mm 5 m/s 750 mmHg 67%
    11:00 +23°C° 0 mm 5 m/s 749 mmHg 61%
    12:00 +25°C° 0,1 mm 5 m/s 749 mmHg 60%
    13:00 +24°C° 0,1 mm 6 m/s 749 mmHg 58%
    14:00 +26°C° 0,1 mm 6 m/s 749 mmHg 57%
    15:00 +25°C° 0,1 mm 5 m/s 749 mmHg 58%
    16:00 +25°C° 0,1 mm 5 m/s 749 mmHg 59%
    17:00 +25°C° 0,1 mm 5 m/s 749 mmHg 60%
    18:00 +23°C° 0 mm 5 m/s 749 mmHg 65%
    19:00 +21°C° 0 mm 4 m/s 749 mmHg 70%
    20:00 +20°C° 0 mm 4 m/s 749 mmHg 75%
    21:00 +20°C° 0 mm 4 m/s 749 mmHg 75%
    22:00 +19°C° 0 mm 4 m/s 749 mmHg 76%
    23:00 +19°C° 0 mm 5 m/s 748 mmHg 76%
    Arată mai mult